Погода в Малых Туванах

Россия / Чувашская Республика     55°41′00″N   46°41′14″E
темп.,
°C
ветер,
м/с
пор.,
м/с
влажн.,
%
обл.,
%
осадки,
мм/ч
давл.,
гПа
погр.,
м
18 мая, ср
ср1800:00+7з238597 0.0 100268
03:00+7зсз3790100 0.0 1001216
06:00+8ссз61196100 2.9 1001713
09:00+8с6991100 4.0 1003755
12:00+8ссз6889100 0.2 1005857
15:00+9ссз687735 0.3 1007956
18:00+8сз478030 0.2 1008429
21:00+5зсз2288100 0.2 100919
19 мая, чт
чт1900:00+5з2485100 0.1 100999
03:00+6з4890100 0.4 1008349
06:00+5з7119291 0.8 1009802
09:00+7зсз7976100 0.9 10091145
12:00+9з5771100 0.4 10091271
15:00+7з568396 1.6 1009913
18:00+6сз368963 0.6 1010445
21:00+3зсз33915 0.7 101033
20 мая, пт
пт2000:00+2з228996 0.0 101010
03:00+3сз3491100 0.1 1010144
06:00+2зсз2599100 4.8 1011407
09:00+3ссз5995100 6.6 1012732
12:00+6ссз687898 0.6 10121098
15:00+8ссз796688 1.6 10121655
18:00+7ссз6107843 0.9 1012883
21:00+2ссз38895 1.0 1013133
21 мая, сб
сб2100:00+1сз369254 0.0 101293
03:00+1сз3592100 0.0 1011106
06:00+3сз4788100 0.1 1010330
09:00+5сз6864100 0.1 10091338
12:00+7сз6762100 0.2 10081649
15:00+7ссз6862100 0.6 10071464
18:00+5ссз5876100 0.5 1008914
21:00+2ссз338688 0.7 100744
22 мая, вс
вс2200:00+1сз4891100 0.0 1007539
03:00+1сз5997100 0.3 1006576
06:00+1ссз6886100 0.1 1007798
09:00+2сз4680100 0.2 1007789
12:00+4сз5668100 0.0 10071238
15:00+5сз6764100 0.1 10071325
18:00+6сз376796 0.0 10071156
21:00+2зюз47825 0.0 1006100